When you browse on this site, cookies collect data to enhance your experience and personalize the content and advertising you see.
Visit our Privacy Policy to learn more. By continuing to use the site, you agree to this use of cookies and data.
  • In Austria
  • List of Countries
  • For 7 days
  • Water Temperature
  • Satellite Maps
  • Weather Map
  • News
  • Weather Widgets
  • user-avatar
    Login

    Hourly Weather Las Vegas

    Today, 19 December, Wednesday

    Time Temperature Precipitation Wind Pressure Humidity
    00:00 +12°C° 0 mm 1 mps 713 mmHg 39%
    01:00 +11°C° 0 mm 1 mps 713 mmHg 40%
    02:00 +11°C° 0 mm 1 mps 713 mmHg 40%
    03:00 +11°C° 0 mm 1 mps 713 mmHg 41%
    04:00 +11°C° 0 mm 1 mps 713 mmHg 41%
    05:00 +11°C° 0 mm 1 mps 713 mmHg 42%
    06:00 +10°C° 0 mm 1 mps 714 mmHg 44%
    07:00 +10°C° 0 mm 1 mps 714 mmHg 45%
    08:00 +13°C° 0 mm 1 mps 714 mmHg 40%
    09:00 +15°C° 0 mm 1 mps 715 mmHg 34%
    10:00 +18°C° 0 mm 1 mps 716 mmHg 29%
    11:00 +19°C° 0 mm 1 mps 715 mmHg 28%
    12:00 +20°C° 0 mm 1 mps 715 mmHg 26%
    13:00 +21°C° 0 mm 1 mps 714 mmHg 25%
    14:00 +20°C° 0 mm 1 mps 714 mmHg 27%
    15:00 +20°C° 0 mm 1 mps 713 mmHg 30%
    16:00 +19°C° 0 mm 1 mps 713 mmHg 32%
    17:00 +18°C° 0 mm 1 mps 713 mmHg 35%
    18:00 +15°C° 0 mm 1 mps 713 mmHg 37%
    19:00 +14°C° 0 mm 1 mps 713 mmHg 40%
    20:00 +14°C° 0 mm 1 mps 713 mmHg 40%
    21:00 +13°C° 0 mm 1 mps 713 mmHg 41%
    22:00 +13°C° 0 mm 1 mps 714 mmHg 41%
    23:00 +13°C° 0 mm 1 mps 713 mmHg 43%

    Tomorrow, 20 December, Thursday

    Time Temperature Precipitation Wind Pressure Humidity
    00:00 +12°C° 0 mm 1 mps 713 mmHg 44%
    01:00 +12°C° 0 mm 1 mps 713 mmHg 45%
    02:00 +12°C° 0 mm 1 mps 713 mmHg 46%
    03:00 +11°C° 0 mm 1 mps 712 mmHg 47%
    04:00 +11°C° 0 mm 1 mps 712 mmHg 49%
    05:00 +10°C° 0 mm 1 mps 712 mmHg 49%
    06:00 +10°C° 0 mm 1 mps 712 mmHg 50%
    07:00 +10°C° 0 mm 1 mps 712 mmHg 50%
    08:00 +12°C° 0 mm 1 mps 713 mmHg 43%
    09:00 +15°C° 0 mm 1 mps 713 mmHg 35%
    10:00 +16°C° 0 mm 0 mps 714 mmHg 28%
    11:00 +19°C° 0 mm 1 mps 713 mmHg 26%
    12:00 +20°C° 0 mm 1 mps 713 mmHg 25%
    13:00 +21°C° 0 mm 1 mps 712 mmHg 23%
    14:00 +20°C° 0 mm 1 mps 712 mmHg 25%
    15:00 +20°C° 0 mm 1 mps 711 mmHg 28%
    16:00 +19°C° 0 mm 1 mps 710 mmHg 30%
    17:00 +18°C° 0 mm 1 mps 710 mmHg 32%
    18:00 +16°C° 0 mm 1 mps 710 mmHg 33%
    19:00 +15°C° 0 mm 1 mps 710 mmHg 35%
    20:00 +15°C° 0 mm 1 mps 710 mmHg 34%
    21:00 +15°C° 0 mm 1 mps 709 mmHg 34%
    22:00 +14°C° 0 mm 1 mps 709 mmHg 34%
    23:00 +14°C° 0 mm 1 mps 709 mmHg 33%

    Day after tomorrow, 21 December, Friday

    Time Temperature Precipitation Wind Pressure Humidity
    00:00 +14°C° 0 mm 1 mps 708 mmHg 33%
    01:00 +14°C° 0 mm 1 mps 708 mmHg 32%
    02:00 +14°C° 0 mm 2 mps 708 mmHg 32%
    03:00 +14°C° 0 mm 2 mps 707 mmHg 31%
    04:00 +14°C° 0 mm 2 mps 707 mmHg 31%
    05:00 +14°C° 0 mm 2 mps 707 mmHg 31%
    06:00 +14°C° 0 mm 2 mps 707 mmHg 31%
    07:00 +13°C° 0 mm 2 mps 707 mmHg 31%
    08:00 +15°C° 0 mm 2 mps 708 mmHg 28%
    09:00 +18°C° 0 mm 1 mps 709 mmHg 25%
    10:00 +19°C° 0 mm 1 mps 709 mmHg 22%
    11:00 +19°C° 0 mm 2 mps 709 mmHg 21%
    12:00 +20°C° 0 mm 2 mps 708 mmHg 19%
    13:00 +21°C° 0 mm 2 mps 708 mmHg 18%
    14:00 +21°C° 0 mm 1 mps 708 mmHg 20%
    15:00 +20°C° 0 mm 1 mps 707 mmHg 22%
    16:00 +19°C° 0 mm 1 mps 707 mmHg 25%
    17:00 +18°C° 0 mm 1 mps 707 mmHg 27%
    18:00 +16°C° 0 mm 1 mps 707 mmHg 29%
    19:00 +13°C° 0 mm 0 mps 707 mmHg 31%
    20:00 +13°C° 0 mm 0 mps 707 mmHg 32%
    21:00 +12°C° 0 mm 0 mps 707 mmHg 33%
    22:00 +12°C° 0 mm 0 mps 707 mmHg 33%
    23:00 +13°C° 0 mm 1 mps 707 mmHg 34%

    22 December, Saturday

    Time Temperature Precipitation Wind Pressure Humidity
    00:00 +12°C° 0 mm 1 mps 707 mmHg 34%
    01:00 +12°C° 0 mm 1 mps 707 mmHg 35%
    02:00 +12°C° 0 mm 1 mps 706 mmHg 35%
    03:00 +11°C° 0 mm 1 mps 706 mmHg 36%
    04:00 +11°C° 0 mm 1 mps 706 mmHg 36%
    05:00 +11°C° 0 mm 1 mps 707 mmHg 37%
    06:00 +11°C° 0 mm 1 mps 707 mmHg 37%
    07:00 +11°C° 0 mm 1 mps 708 mmHg 38%
    08:00 +13°C° 0 mm 1 mps 709 mmHg 35%
    09:00 +14°C° 0 mm 1 mps 709 mmHg 32%
    10:00 +16°C° 0 mm 1 mps 710 mmHg 29%
    11:00 +16°C° 0 mm 1 mps 710 mmHg 28%
    12:00 +18°C° 0 mm 1 mps 710 mmHg 27%
    13:00 +18°C° 0 mm 1 mps 710 mmHg 26%
    14:00 +16°C° 0 mm 1 mps 710 mmHg 28%
    15:00 +16°C° 0 mm 1 mps 710 mmHg 30%
    16:00 +15°C° 0 mm 1 mps 710 mmHg 33%
    17:00 +14°C° 0 mm 1 mps 710 mmHg 35%
    18:00 +13°C° 0 mm 1 mps 711 mmHg 37%
    19:00 +12°C° 0 mm 1 mps 711 mmHg 38%
    20:00 +12°C° 0 mm 1 mps 711 mmHg 39%
    21:00 +11°C° 0 mm 1 mps 712 mmHg 40%
    22:00 +11°C° 0 mm 1 mps 712 mmHg 41%
    23:00 +11°C° 0 mm 1 mps 712 mmHg 43%

    23 December, Sunday

    Time Temperature Precipitation Wind Pressure Humidity
    00:00 +10°C° 0 mm 1 mps 712 mmHg 44%
    01:00 +10°C° 0 mm 1 mps 712 mmHg 45%
    02:00 +10°C° 0 mm 1 mps 712 mmHg 46%
    03:00 +9°C° 0 mm 1 mps 712 mmHg 46%
    04:00 +9°C° 0 mm 1 mps 712 mmHg 47%
    05:00 +9°C° 0 mm 1 mps 712 mmHg 48%
    06:00 +8°C° 0 mm 1 mps 712 mmHg 49%
    07:00 +8°C° 0 mm 1 mps 713 mmHg 51%
    08:00 +10°C° 0 mm 1 mps 713 mmHg 43%
    09:00 +12°C° 0 mm 1 mps 713 mmHg 35%
    10:00 +15°C° 0 mm 1 mps 714 mmHg 27%
    11:00 +15°C° 0 mm 1 mps 713 mmHg 26%
    12:00 +16°C° 0 mm 1 mps 712 mmHg 24%
    13:00 +18°C° 0 mm 1 mps 712 mmHg 22%
    14:00 +16°C° 0 mm 1 mps 712 mmHg 25%
    15:00 +16°C° 0 mm 1 mps 711 mmHg 27%
    16:00 +14°C° 0 mm 0 mps 711 mmHg 29%
    17:00 +14°C° 0 mm 0 mps 711 mmHg 30%
    18:00 +13°C° 0 mm 0 mps 711 mmHg 32%
    19:00 +12°C° 0 mm 0 mps 711 mmHg 33%
    20:00 +12°C° 0 mm 0 mps 711 mmHg 33%
    21:00 +12°C° 0 mm 0 mps 711 mmHg 33%
    22:00 +11°C° 0 mm 0 mps 711 mmHg 33%
    23:00 +11°C° 0 mm 0 mps 710 mmHg 33%

    24 December, Monday

    Time Temperature Precipitation Wind Pressure Humidity
    00:00 +11°C° 0 mm 0 mps 710 mmHg 33%
    01:00 +11°C° 0 mm 0 mps 710 mmHg 33%
    02:00 +10°C° 0 mm 0 mps 710 mmHg 33%
    03:00 +10°C° 0 mm 0 mps 709 mmHg 34%
    04:00 +9°C° 0 mm 0 mps 709 mmHg 34%
    05:00 +9°C° 0 mm 0 mps 709 mmHg 35%
    06:00 +9°C° 0 mm 0 mps 709 mmHg 35%
    07:00 +8°C° 0 mm 0 mps 709 mmHg 35%
    08:00 +10°C° 0 mm 0 mps 709 mmHg 31%
    09:00 +14°C° 0 mm 1 mps 709 mmHg 26%
    10:00 +16°C° 0 mm 1 mps 709 mmHg 22%
    11:00 +18°C° 0 mm 1 mps 708 mmHg 21%
    12:00 +17°C° 0 mm 2 mps 708 mmHg 20%
    13:00 +18°C° 0 mm 3 mps 707 mmHg 19%
    14:00 +18°C° 0 mm 3 mps 706 mmHg 20%
    15:00 +18°C° 0 mm 3 mps 705 mmHg 22%
    16:00 +17°C° 0 mm 3 mps 704 mmHg 24%
    17:00 +15°C° 0 mm 4 mps 704 mmHg 28%
    18:00 +14°C° 0 mm 5 mps 703 mmHg 33%
    19:00 +13°C° 0 mm 6 mps 702 mmHg 38%
    20:00 +12°C° 0 mm 8 mps 702 mmHg 44%
    21:00 +12°C° 0 mm 10 mps 702 mmHg 49%
    22:00 +12°C° 0 mm 11 mps 702 mmHg 54%
    23:00 +11°C° 0.3 mm 9 mps 702 mmHg 51%
    Show more